闪电 1-40星 (MOLNIYA 1-40)

导读

MOLNIYA 1-40(闪电1-40)是独联体(CIS,继承苏联航天体系)发射的闪电-1系列通信卫星,于1978年6月2日在拜科努尔航天发射场升空。卫星运行于标志性的高倾角闪电轨道,可长时间在北半球高纬度区域停留,搭载通信载荷,为苏联偏远地区及军事领域提供电话、电报、电视传输服务,是苏联早期空间通信体系的重要组成节点。

Basic Information
目录编号:
10925
目录名称:
MOLNIYA 1-40
国际标识:
1978-055A
轨道中心:
EARTH
卫星名称:
闪电 1-40星
卫星全名:
闪电 1-40星 (MOLNIYA 1-40)
卫星状态:
在轨 (已飞行17633 天)
发射日期:
1978-06-02 UTC
国别 :
俄罗斯(独联体) (CIS)
星等 :
--
This satellite is enrolled in the Space Conjunction Data Service (SCDS) and the current flight risk assessment level is: No High Risk
Orbit Information
数据来源 国际轨道数据 AOE轨道数据
星历时间 2026-09-10T06:07:02+0800
1天前
查看轨道信息
2026-09-10T05:00:00+0800
1天前
查看轨道信息
半长轴 26548.895km 26548.816km
偏心率 0.6712307 0.6712226
轨道倾角 64.019° 64.020°
近地点辐角 273.693° 273.696°
升交点赤经 213.429° 213.433°
平近点角 17.854° 344.228°
近地点 2350.324km 2350.513km
远地点 37991.192km 37990.845km
周期 717.512分钟 717.509分钟
每日圈数 2.006934 2.006943
Detailed Information
平衡模式:
三轴稳定
覆盖范围:
全球
运营商:
俄罗斯国家航天集团
运营商所在国:
俄罗斯
制造商(研发单位):
普里克拉德诺伊·梅哈尼基设计局
制造商所在国:
俄罗斯联邦
使用方式:
暂无
Satellite Introduction
闪电(Molniya (Satellite))系列卫星是苏联/俄罗斯于1965年至2004年间发射的军事和通信卫星。这些卫星使用高度偏心的椭圆轨道,称为Molniya轨道(即闪电轨道),在高纬度地区具有较长的停留时间。该卫星状态未知。
2D Orbit Map
3D Orbit Map
Orbit Altitude Analysis Chart
Orbit Inclination Analysis Chart
Orbit Comprehensive Analysis Chart
View Comprehensive Chart
Miss Distance Evolution Trend with All Objects
Collision Probability Evolution Trend with All Objects